Regional Weather Roundup
Issued by NWS

Home | Current Version | Previous Version | Graphics & Text | Print | Product List | Glossary On
Versions: 1 2 3 4 5 6 7 8 9 10 11 12 13 14 15 16 17 18 19 20 21 22 23 24 25 26 27 28 29 30 31 32 33 34 35 36 37 38 39 40 41 42 43 44 45 46 47 48 49 50
000
ASUS45 KBOU 290110
RWRCO

WEATHER ROUNDUP FOR COLORADO
NATIONAL WEATHER SERVICE PUEBLO CO
700 PM MDT TUE JUL 28 2015

NOTE: "FAIR" INDICATES FEW OR NO CLOUDS BELOW 12000 FEET WITH NO
SIGNIFICANT WEATHER AND/OR OBSTRUCTIONS TO VISIBILITY.

COZ001>005-013-030-031-290200-
...NORTHWEST COLORADO...

CITY           SKY/WX    TMP DP  RH WIND       PRES   REMARKS
CRAIG          SUNNY     79  29  16 NW13      30.22S
HAYDEN         SUNNY     75  27  16 N7        30.24S
MEEKER         SUNNY     79  26  14 N6        30.23S
MOUNT WERNER   NOT AVBL
STEAMBOAT SPGS FAIR      74  30  20 NW7       30.28R
WALDEN         FAIR      70  27  19 W8        30.36S
$$

COZ006>008-011-290200-
...WEST CENTRAL VALLEYS...

CITY           SKY/WX    TMP DP  RH WIND       PRES   REMARKS
GRAND JUNCTION SUNNY     87  22   9 NW15      30.06F
MONTROSE       MOSUNNY   85  35  16 NW13      30.13F
EAGLE          MOSUNNY   82  27  13 W9G20     30.22S
RIFLE          SUNNY     86  21   9 W13       30.11F
DELTA          NOT AVBL
NUCLA          FAIR      84  28  13 NW8       30.17S
$$

COZ017>023-064>068-290200-
...SOUTHWEST COLORADO...

CITY           SKY/WX    TMP DP  RH WIND       PRES   REMARKS
DURANGO        MOSUNNY   83  31  15 NW13      30.17S
CORTEZ         SUNNY     82  26  13 W8        30.13S
PAGOSA SPRINGS FAIR      81  22  11 SW5       30.26S
TELLURIDE      MOSUNNY   72  29  20 W7        30.41S
WOLF CREEK PAS NOT AVBL
$$

COZ009-010-012-014-032>034-037-058>063-290200-
...CENTRAL COLORADO...

CITY           SKY/WX    TMP DP  RH WIND       PRES   REMARKS
ASPEN          SUNNY     76  36  23 N6        30.29S
BUENA VISTA    FAIR      79  21  11 W15       30.26S
COPPER MTN     SUNNY     61  28  29 W17       30.64S
BERTHOUD PASS  FAIR      46  36  66 MISG      30.71R
COTTONWOOD PAS SUNNY     73  10   9 NW8       30.44S
GUNNISON       MOSUNNY   79  30  17 NW7       30.30R
KREMMLING      SUNNY     73  23  15 N12G23    30.30R
LEADVILLE      SUNNY     67  23  19 NW8G18    30.45R
MONARCH PASS   MOSUNNY   61  28  29 W16       30.73S
SALIDA         FAIR      79  36  21 SE20G28   30.30S
NIWOT RIDGE    NOT AVBL
SUNLIGHT       SUNNY     63  32  31 CALM      30.57S
WILKERSON PASS PTSUNNY   59  32  36 S7        30.60S
$$

COZ069>075-290200-
...SAN LUIS VALLEY/SANGRE DE CRISTO MOUNTAINS...

CITY           SKY/WX    TMP DP  RH WIND       PRES   REMARKS
ALAMOSA        MOSUNNY   79  41  25 S8        30.21S
LA VETA PASS   PTSUNNY   59  43  55 E10G17    30.48S
SAGUACHE       MOSUNNY   77  34  20 N10       30.26S
$$

COZ035-036-038>040-290200-
...NORTHERN COLORADO FRONT RANGE...

CITY           SKY/WX    TMP DP  RH WIND       PRES   REMARKS
DENVER INTL AP MOSUNNY   81  35  19 E22G28    30.14S
DMNS CITY PARK NOT AVBL
AURORA         MOSUNNY   80  42  25 E15       30.17R
FRONT RANGE AP MOSUNNY   79  32  18 E21G28    30.18R
ERIE MUNI ARPT FAIR      82  35  18 E13G20    30.13R
BOULDER MUN AP FAIR      81  39  22 NE9G16    30.14R
CENTENNIAL     MOSUNNY   79  40  24 E20G33    30.17R
BROOMFIELD     PTSUNNY   82  41  23 E7        30.17R
LOVELAND       SUNNY     82  43  24 E17       30.12R
LONGMONT       FAIR      82  40  22 E8        30.15R
$$

COZ041-046-047-076>085-087-088-290200-
...PIKES PEAK/PALMER DIVIDE AND SOUTHERN FOOTHILLS...

CITY           SKY/WX    TMP DP  RH WIND       PRES   REMARKS
COLO. SPRINGS  MOSUNNY   81  37  20 SE17      30.21R
A. F. ACADEMY  MOSUNNY   80  34  19 SE17G26   30.21R
ELLICOTT       FAIR     N/A N/A N/A SE18G25   30.21R
FALCON         FAIR      75  36  24 SE16G23   30.28R
FORT CARSON    CLOUDY    81  40  23 SE14      30.18R
LIMON          SUNNY     75  44  33 E13       30.19R
MONUMENT HILL  PTSUNNY   70  41  35 E20G25    30.27R
TRINIDAD       PTSUNNY   80  48  32 VRB6      30.16F
$$

COZ042>045-048>051-090-091-290200-
...NORTHEAST COLORADO...

CITY           SKY/WX    TMP DP  RH WIND       PRES   REMARKS
GREELEY ARPT   SUNNY     79  43  27 SE13      30.14R
AKRON          SUNNY     78  37  22 E8        30.16R
BURLINGTON     SUNNY     78  44  29 NE10      30.13R
WRAY           FAIR      81  42  24 E8        30.11R
STERLING       NOT AVBL
HOLYOKE        FAIR      82  37  20 NE6       30.12R
FORT MORGAN    FAIR      78  37  22 E9        30.15R
$$

COZ086-089-092>099-290200-
...SOUTHEAST COLORADO...

CITY           SKY/WX    TMP DP  RH WIND       PRES   REMARKS
PUEBLO         PTSUNNY   86  40  19 E21G28    30.08R
LA JUNTA       PTSUNNY   87  41  19 E16       30.08R
LAMAR          PTSUNNY   84  47  27 E13       30.05R
SPRINGFIELD      N/A     77  52  41 E10       30.11R
$$




USA.gov is the U.S. government's official web portal to all federal, state and local government web resources and services.